Weather in Beauvais

France     49°26′13″N   2°04′53″E
temp.,
°C
wind,
m/s
gust,
m/s
humid.,
%
clouds,
%
prec.,
mm/h
press.,
hPa
HPBL,
m
13 may, thu
thu1323:00+8se34925 0.0 100960
02:00+7se359499 0.0 100874
05:00+8w5997100 2.6 1007421
08:00+7sw4994100 3.4 1008427
11:00+9sw5780100 0.0 1008580
14:00+12ssw3563100 0.1 10071336
17:00+14w145499 0.1 10061273
20:00+13sw237589 0.2 100686
14 may, fri
fri1423:00+7sw22896 0.1 100716
02:00+6sw229058 0.1 100720
05:00+4ssw369657 0.0 1007104
08:00+7ssw479499 0.0 1007278
11:00+9ssw5689100 0.2 1008616
14:00+12ssw5683100 1.4 10071070
17:00+13nw1275100 1.9 1006903
20:00+11wnw58904 2.9 1008499
15 may, sat
sat1523:00+7w3696100 0.0 1010135
02:00+6wsw2297100 0.0 100941
05:00+6ssw3596100 0.0 1008123
08:00+7ssw41095100 0.4 1007664
11:00+7sse51097100 2.4 1005936
14:00+12wsw588049 2.6 10041087
17:00+14w712733 1.4 10041459
20:00+12w611780 1.7 1005900
16 may, sun
sun1623:00+7sw411930 0.0 1007216
02:00+6sw499491 0.0 1007161
05:00+8ssw5109654 0.0 1006353
08:00+7sw5119693 0.1 1006404
11:00+10sw68832 0.1 1005863
14:00+14wsw796665 0.8 10041780
17:00+14wsw79745 1.7 10031292
20:00+11wsw598789 4.3 1003422
17 may, mon
mon1723:00+9sw61394100 1.0 1005598
02:00+8sw7149595 1.9 1005725
05:00+8sw6139277 0.1 1004663
08:00+8ssw8149247 0.1 1004765
11:00+9sw81491100 1.6 10041011
14:00+11wsw91486100 2.2 10041380
17:00+13w9148646 1.4 10051456
20:00+11w814855 2.3 10071005